STARLINK-4755 (53851 NORAD) Tracking and Keplerian Element Data

This shows tracking and keplerian element data for the satellite.

Feedback or suggestion? Click here.




ElementValue
Catalog53851
NameSTARLINK-4755
Epoch Orbit1053
Epoch Day325.33334491
Epoch Year2022
RAAN305.6331
Inclination53.2173
Eccentricity0.0001607
Argument of Perigee243.6605
Mean Anonmoly146.7914
Mean Motion15.66481341
Decay Rate-0.01147803
L11 53851U 22114AK 22325.33334491 -.01147803 00000+0 -11944-1 0 9991
L22 53851 53.2173 305.6331 0001607 243.6605 146.7914 15.66481341 10536



Live tracking and technical data element details for STARLINK-4755 (NORAD 53851). STARLINK-4755 can be tracked NOW for your location showing map with azimuth and elevation plus other details from your city location.







IsCatalogInMostPopularTable: catalog: 53851, numindb: -1

Insert: records affected: 1


GetName: 53851 STARLINK-4755

Hit Count: inserted at: Thu, 08 Dec 2022 09:15:58 GMT